Location: �mondeville
(49.4591°N, 1.3431°W)
Time: 20:43:08
(UTC+00:00)

Cosmos 1602 Rocket - Pass Details

Date: 22 October 2019
Orbit: 604 x 633 km, 82.5° (Epoch: 18 November)

Event Time Altitude Azimuth Distance (km) Brightness Sun altitude
Rises 05:50:25 0° 194° (SSW) 2,855 6.9 -8.2°
Reaches altitude 10° 05:52:38 10° 196° (SSW) 1,953 6.0 -7.9°
Maximum altitude 05:56:57 72° 281° (W) 643 3.5 -7.2°
Drops below altitude 10° 06:01:17 10° 6° (N) 1,964 6.1 -6.5°
Sets 06:03:31 0° 9° (N) 2,873 7.0 -6.1°
